This demonstration page uses our WeatherBlox Daily Observations layout. Learn more.

41.55636, -103.73856

Hourly Observations for July 20, 2016

Temp ( °F °C ) Dew Point ( °F °C ) Humidity (%) Winds ( mph kmh ) Pressure ( in mb ) Visibility ( mi km ) Precip ( " mm )
12:53 am 00:53 Clear 79 26.1 55 12.8 44 44 SSW 17 28 29.89 1012 10 16.0934 0 0
1:53 am 01:53 Clear 75 23.9 57 13.9 54 54 undefined N/A 29.9 1012 10 16.0934 0 0
2:53 am 02:53 Clear 76 24.4 54 12.2 47 47 VRB 3 6 29.88 1012 10 16.0934 0 0
3:53 am 03:53 Clear 68 20 57 13.9 68 68 N 9 15 29.88 1012 10 16.0934 0 0
4:53 am 04:53 Clear 69 20.6 56 13.3 63 63 NW 7 11 29.87 1012 10 16.0934 0 0
5:53 am 05:53 Sunny 64 17.8 58 14.4 81 81 NE 3 6 29.9 1013 10 16.0934 0 0
6:53 am 06:53 Sunny 69 20.6 58 14.4 68 68 Calm 29.91 1013 10 16.0934 0 0
7:53 am 07:53 Sunny 73 22.8 58 14.4 59 59 SW 3 6 29.92 1013 10 16.0934 0 0
8:53 am 08:53 Sunny 81 27.2 56 13.3 42 42 WNW 5 7 29.93 1013 10 16.0934 0 0
9:53 am 09:53 Sunny 86 30 57 13.9 37 37 WNW 6 9 29.91 1013 10 16.0934 0 0
10:53 am 10:53 Sunny 91 32.8 56 13.3 31 31 WNW 6 9 29.91 1013 10 16.0934 0 0
11:53 am 11:53 Sunny 94 34.4 57 13.9 29 29 VRB 5 7 29.89 1012 10 16.0934 0 0
12:53 pm 12:53 Sunny 98 36.7 56 13.3 24 24 N 8 13 29.86 1011 10 16.0934 0 0
1:53 pm 13:53 Sunny 99 37.2 44 6.7 15 15 W 7 11 29.85 1011 10 16.0934 0 0
2:53 pm 14:53 Sunny 101 38.3 43 6.1 14 14 W 7 11 29.83 1010 10 16.0934 0 0
3:53 pm 15:53 Sunny 103 39.4 41 5 12 12 W 7 11 29.81 1010 10 16.0934 0 0
4:53 pm 16:53 Sunny 102 39 41 5 12 12 W 8 13 29.56 1001 10 16.0934 0 0
5:53 pm 17:53 Sunny 100 37.8 44 6.7 15 15 S 6 9 29.81 1010 10 16.0934 0 0
6:53 pm 18:53 Sunny 95 35 52 11.1 23 23 S 5 7 29.83 1010 10 16.0934 0 0
7:53 pm 19:53 Sunny 88 31.1 51 10.6 28 28 W 22 35 29.88 1012 10 16.0934 0 0
8:53 pm 20:53 Clear 83 28.3 50 10 32 32 WNW 14 22 29.88 1012 10 16.0934 0 0
9:53 pm 21:53 Clear 81 27.2 51 10.6 35 35 WSW 7 11 29.91 1013 10 16.0934 0 0
10:53 pm 22:53 Clear 83 28.3 49 9.4 31 31 WSW 7 11 29.88 1012 10 16.0934 0 0
11:53 pm 23:53 Clear 77 25 52 11.1 42 42 Calm 29.87 1011 10 16.0934 0 0

Powered by AerisWeather